Greenville, AL

9:05 AM CDT on May 23, 2017 (GMT -0500)
Greenville Municipal

Weather History for KPRN - October, 2011

Change the Weather History Date:

Monday, October 17, 2011

  Actual Average Record
Temperature  
Mean Temperature 69 °F -  
Max Temperature 88 °F 78 °F 91 °F (2016)
Min Temperature 50 °F 53 °F 32 °F (1977)
Cooling Degree Days 4    
Growing Degree Days 19 (Base 50)    
Moisture  
Dew Point 52 °F    
Average Humidity 61    
Maximum Humidity 90    
Minimum Humidity 24    
Precipitation  
Precipitation 0.00 in - - ()
Sea Level Pressure  
Sea Level Pressure 29.93 in    
Wind  
Wind Speed 1 mph (NE)    
Max Wind Speed 7 mph    
Max Gust Speed -    
Visibility 10 miles    
Events Hail    
Averages and records for this station are not official NWS values.
T = Trace of Precipitation, MM = Missing Value Source: NWS Daily Summary

Daily Weather History Graph

Daily Weather History Graph

Search for Another Location

Airport or City:

Trip Planner

Search our weather history database for the weather conditions in past years. The results will help you decide how hot, cold, wet, or windy it might be!

Date:

Astronomy

Oct. 17, 2011 Rise Set
Actual Time 6:51 AM CDT 6:12 PM CDT
Civil Twilight 6:26 AM CDT 6:36 PM CDT
Nautical Twilight 5:57 AM CDT 7:05 PM CDT
Astronomical Twilight 5:29 AM CDT 7:33 PM CDT
Moon 10:06 PM CDT (10/17) 11:42 AM CDT (10/17)
Length of Visible Light 12h 10m
Length of Day
11h 21m
Waning Gibbous, 74% of the Moon is Illuminated
Oct 17
Waning Gibbous
Oct 19
Last Quarter
Oct 26
New
Nov 2
First Quarter
Nov 10
Full

Hourly Weather History & Observations

Time (CDT) Temp. Dew Point Humidity Pressure Visibility Wind Dir Wind Speed Gust Speed Precip Events Conditions
12:56 AM 55.9 °F 51.1 °F 84% 30.02 in 10.0 mi Calm Calm - N/A   Clear
1:56 AM 54.0 °F 50.0 °F 86% 30.01 in 10.0 mi Calm Calm - N/A   Clear
2:45 AM - - N/A% - - North - - N/A Hail Hail
3:56 AM 53.1 °F 48.9 °F 86% 29.99 in 10.0 mi Calm Calm - N/A   Clear
4:56 AM 52.0 °F 48.0 °F 86% 29.99 in 10.0 mi Calm Calm - N/A   Clear
5:56 AM 52.0 °F 48.0 °F 86% 30.00 in 10.0 mi Calm Calm - N/A   Clear
6:56 AM 50.0 °F 46.9 °F 89% 30.01 in 10.0 mi Calm Calm - N/A   Clear
7:56 AM 57.0 °F 51.1 °F 81% 30.00 in 10.0 mi Calm Calm - N/A   Clear
8:56 AM 64.9 °F 54.0 °F 68% 30.02 in 10.0 mi Calm Calm - N/A   Clear
9:56 AM 75.0 °F 57.0 °F 53% 30.01 in 10.0 mi Calm Calm - N/A   Clear
10:56 AM 82.0 °F 51.1 °F 34% 29.99 in 10.0 mi NNW 3.5 mph - N/A   Clear
11:56 AM 84.9 °F 51.1 °F 31% 29.97 in 10.0 mi North 4.6 mph - N/A   Clear
12:56 PM 87.1 °F 50.0 °F 28% 29.93 in 10.0 mi North 6.9 mph - N/A   Clear
1:56 PM 88.0 °F 51.1 °F 28% 29.90 in 10.0 mi Calm Calm - N/A   Clear
2:56 PM 87.1 °F 50.0 °F 28% 29.88 in 10.0 mi ESE 5.8 mph - N/A   Clear
3:56 PM 87.1 °F 46.0 °F 24% 29.87 in 10.0 mi SE 5.8 mph - N/A   Clear
4:56 PM 86.0 °F 48.0 °F 27% 29.86 in 10.0 mi East 3.5 mph - N/A   Clear
5:56 PM 82.9 °F 52.0 °F 34% 29.85 in 10.0 mi Calm Calm - N/A   Clear
6:56 PM 73.0 °F 57.0 °F 57% 29.86 in 10.0 mi Calm Calm - N/A   Clear
7:56 PM 66.9 °F 57.0 °F 70% 29.87 in 10.0 mi Calm Calm - N/A   Clear
8:56 PM 64.0 °F 57.0 °F 78% 29.87 in 10.0 mi Calm Calm - N/A   Clear
9:56 PM 61.0 °F 55.9 °F 83% 29.86 in 10.0 mi Calm Calm - N/A   Clear
10:56 PM 59.0 °F 55.9 °F 90% 29.85 in 10.0 mi Calm Calm - N/A   Clear
11:56 PM 59.0 °F 54.0 °F 83% 29.83 in 10.0 mi Calm Calm - N/A   Clear